Last 6 Hours

AM-Roundhouse Top 7880'

15 Minute Data | America/Los_Angeles
as of 8/18/22 8:02 PM PDT
Date & Time Temp (°F) RH (%) Dew Pt (°F) Wet Bulb (°F) Wind Dir (°) Wind Spd (mph) Wind Gust (mph) WindChill (°F)
8/18/22 - 2000 63.7 38 37.6 49.1 NW | 319 2.6 10.9 64.1
8/18/22 - 1945 64.3 37 37.6 49.3 NNW | 333 2.1 10.8 64.7
8/18/22 - 1930 64.9 37 37.8 49.7 W | 276 3.2 12.3 65.0
8/18/22 - 1915 65.2 37 38.1 49.9 NW | 319 1.9 6.5 65.4
8/18/22 - 1900 65.9 36 38.1 50.2 NNW | 327 2.6 9.8 65.9
8/18/22 - 1845 66.0 37 38.6 50.4 NW | 305 2.7 11.8 66.2
8/18/22 - 1830 66.2 36 38.8 50.6 NW | 313 3.3 12.3 66.7
8/18/22 - 1815 66.8 37 39.9 51.3 NW | 310 2.8 10.2 67.1
8/18/22 - 1800 67.3 36 39.3 51.2 NW | 313 4.1 12.5 68.0
8/18/22 - 1745 69.0 34 39.2 51.8 NW | 308 3.1 8.2 69.4
8/18/22 - 1730 69.6 34 39.9 52.3 NW | 321 3.7 9.6 70.5
8/18/22 - 1715 71.0 33 40.1 52.9 NNW | 332 2.8 9.7 71.2
8/18/22 - 1700 71.4 33 40.6 53.3 NW | 307 2.3 7.7 71.3
8/18/22 - 1645 70.9 32 40.0 52.9 NW | 321 2.4 9.9 71.1
8/18/22 - 1630 71.1 34 41.0 53.3 NW | 305 2.4 10.1 70.9
8/18/22 - 1615 70.1 35 40.9 53.0 NW | 326 6.6 13.6 70.9
8/18/22 - 1600 70.6 35 41.9 53.6 WNW | 301 5.6 17.4 70.8
8/18/22 - 1545 70.6 37 43.2 54.1 NW | 309 5.3 12.8 70.7
8/18/22 - 1530 70.1 36 41.9 53.4 NNW | 340 2.5 11.0 70.2
8/18/22 - 1515 70.3 36 42.0 53.5 N | 349 2.8 8.3 70.1
8/18/22 - 1500 70.2 35 41.4 53.2 NNW | 333 2.1 8.2 70.4
8/18/22 - 1445 70.2 37 43.0 53.9 NW | 325 5.5 11.8 70.7
8/18/22 - 1430 72.3 35 43.0 54.7 NNE | 27 3.4 10.4 72.5
8/18/22 - 1415 72.6 34 42.8 54.7 S | 177 3.0 13.1 70.8
Max 72.6 38 43.2 54.7 - 6.6 17.4 72.5
Avg 68.8 35 40.3 52.2 - 3.3 10.8 68.9
Min 63.7 32 37.6 49.1 - 1.9 6.5 64.1